EN

Hourly Weather Abejuela

Today, 25 November, Wednesday

Time Temperature Precipitation Wind Pressure Humidity
00:00 +3°C° 0 mm 1 mps 648 mmHg 59%
01:00 +3°C° 0 mm 1 mps 648 mmHg 60%
02:00 +2°C° 0 mm 1 mps 648 mmHg 62%
03:00 +2°C° 0 mm 1 mps 647 mmHg 63%
04:00 +2°C° 0 mm 1 mps 647 mmHg 64%
05:00 +2°C° 0 mm 1 mps 647 mmHg 66%
06:00 +2°C° 0 mm 1 mps 647 mmHg 68%
07:00 +4°C° 0 mm 1 mps 648 mmHg 66%
08:00 +5°C° 0 mm 1 mps 648 mmHg 63%
09:00 +7°C° 0 mm 1 mps 649 mmHg 61%
10:00 +8°C° 0 mm 1 mps 649 mmHg 57%
11:00 +8°C° 0 mm 2 mps 649 mmHg 53%
12:00 +9°C° 0 mm 2 mps 649 mmHg 49%
13:00 +9°C° 0 mm 2 mps 649 mmHg 51%
14:00 +9°C° 0 mm 3 mps 648 mmHg 52%
15:00 +9°C° 0 mm 3 mps 647 mmHg 53%
16:00 +7°C° 0 mm 2 mps 647 mmHg 63%
17:00 +5°C° 0 mm 2 mps 646 mmHg 73%
18:00 +3°C° 0 mm 1 mps 646 mmHg 83%
19:00 +3°C° 0 mm 1 mps 646 mmHg 83%
20:00 +2°C° 0 mm 2 mps 646 mmHg 84%
21:00 +2°C° 0 mm 2 mps 646 mmHg 84%
22:00 +2°C° 0 mm 2 mps 646 mmHg 85%
23:00 +3°C° 0 mm 2 mps 647 mmHg 87%

Tomorrow, 26 November, Thursday

Time Temperature Precipitation Wind Pressure Humidity
00:00 +4°C° 0 mm 2 mps 647 mmHg 88%
01:00 +4°C° 0 mm 2 mps 647 mmHg 88%
02:00 +4°C° 0 mm 2 mps 647 mmHg 89%
03:00 +4°C° 0 mm 2 mps 646 mmHg 90%
04:00 +4°C° 0 mm 2 mps 646 mmHg 91%
05:00 +4°C° 0 mm 2 mps 646 mmHg 92%
06:00 +3°C° 0 mm 3 mps 646 mmHg 93%
07:00 +4°C° 0.1 mm 3 mps 646 mmHg 91%
08:00 +4°C° 0.1 mm 4 mps 647 mmHg 90%
09:00 +5°C° 0.1 mm 4 mps 647 mmHg 88%
10:00 +6°C° 0.2 mm 5 mps 647 mmHg 86%
11:00 +5°C° 0.2 mm 6 mps 646 mmHg 84%
12:00 +6°C° 0.2 mm 7 mps 646 mmHg 82%
13:00 +7°C° 0.5 mm 6 mps 646 mmHg 83%
14:00 +7°C° 0.5 mm 6 mps 646 mmHg 85%
15:00 +5°C° 0.5 mm 6 mps 646 mmHg 86%
16:00 +5°C° 0.4 mm 6 mps 645 mmHg 89%
17:00 +5°C° 0.4 mm 5 mps 645 mmHg 91%
18:00 +5°C° 0.4 mm 5 mps 645 mmHg 94%
19:00 +5°C° 0.1 mm 5 mps 645 mmHg 94%
20:00 +5°C° 0.1 mm 5 mps 646 mmHg 95%
21:00 +5°C° 0.1 mm 5 mps 646 mmHg 95%
22:00 +5°C° 0.4 mm 5 mps 646 mmHg 94%
23:00 +5°C° 0.4 mm 5 mps 645 mmHg 93%

Day after tomorrow, 27 November, Friday

Time Temperature Precipitation Wind Pressure Humidity
00:00 +5°C° 0.4 mm 5 mps 645 mmHg 92%
01:00 +5°C° 0.2 mm 5 mps 645 mmHg 93%
02:00 +3°C° 0.2 mm 5 mps 645 mmHg 93%
03:00 +3°C° 0.2 mm 5 mps 644 mmHg 93%
04:00 +3°C° 0.1 mm 5 mps 644 mmHg 92%
05:00 +3°C° 0.1 mm 5 mps 644 mmHg 91%
06:00 +3°C° 0.1 mm 6 mps 643 mmHg 90%
07:00 +3°C° 0.3 mm 6 mps 643 mmHg 88%
08:00 +3°C° 0.3 mm 7 mps 643 mmHg 87%
09:00 +4°C° 0.3 mm 7 mps 643 mmHg 85%
10:00 +4°C° 0.5 mm 7 mps 643 mmHg 84%
11:00 +4°C° 0.5 mm 8 mps 643 mmHg 82%
12:00 +4°C° 0.5 mm 8 mps 643 mmHg 81%
13:00 +4°C° 2.5 mm 8 mps 642 mmHg 84%
14:00 +4°C° 2.5 mm 8 mps 641 mmHg 87%
15:00 +3°C° 2.5 mm 7 mps 641 mmHg 90%
16:00 +3°C° 2 mm 7 mps 641 mmHg 91%
17:00 +3°C° 2 mm 6 mps 641 mmHg 92%
18:00 +3°C° 2 mm 5 mps 641 mmHg 93%
19:00 +3°C° 0.7 mm 5 mps 641 mmHg 93%
20:00 +3°C° 0.7 mm 5 mps 641 mmHg 92%
21:00 +3°C° 0.7 mm 5 mps 641 mmHg 92%
22:00 +3°C° 1.2 mm 5 mps 641 mmHg 92%
23:00 +4°C° 1.2 mm 4 mps 640 mmHg 93%

28 November, Saturday

Time Temperature Precipitation Wind Pressure Humidity
00:00 +4°C° 1.2 mm 4 mps 640 mmHg 93%
01:00 +4°C° 1.6 mm 3 mps 640 mmHg 93%
02:00 +4°C° 1.6 mm 3 mps 640 mmHg 93%
03:00 +4°C° 1.6 mm 3 mps 639 mmHg 93%
04:00 +4°C° 1.5 mm 3 mps 639 mmHg 93%
05:00 +4°C° 1.5 mm 3 mps 639 mmHg 92%
06:00 +3°C° 1.5 mm 3 mps 639 mmHg 91%
07:00 +4°C° 0.5 mm 3 mps 639 mmHg 89%
08:00 +4°C° 0.5 mm 3 mps 640 mmHg 87%
09:00 +5°C° 0.5 mm 3 mps 640 mmHg 85%
10:00 +7°C° 0 mm 3 mps 640 mmHg 79%
11:00 +7°C° 0 mm 4 mps 641 mmHg 73%
12:00 +8°C° 0 mm 4 mps 641 mmHg 67%
13:00 +8°C° 0 mm 4 mps 641 mmHg 67%
14:00 +8°C° 0 mm 4 mps 640 mmHg 66%
15:00 +9°C° 0 mm 3 mps 640 mmHg 66%
16:00 +7°C° 0 mm 3 mps 640 mmHg 71%
17:00 +5°C° 0 mm 3 mps 640 mmHg 77%
18:00 +4°C° 0 mm 3 mps 640 mmHg 82%
19:00 +3°C° 0 mm 3 mps 641 mmHg 82%
20:00 +3°C° 0 mm 3 mps 641 mmHg 83%
21:00 +3°C° 0 mm 3 mps 641 mmHg 83%
22:00 +3°C° 0 mm 3 mps 642 mmHg 82%
23:00 +4°C° 0 mm 2 mps 642 mmHg 81%

29 November, Sunday

Time Temperature Precipitation Wind Pressure Humidity
00:00 +4°C° 0 mm 2 mps 642 mmHg 80%
01:00 +4°C° 0 mm 2 mps 642 mmHg 80%
02:00 +5°C° 0 mm 2 mps 642 mmHg 79%
03:00 +6°C° 0 mm 1 mps 643 mmHg 79%
04:00 +5°C° 0 mm 1 mps 643 mmHg 80%
05:00 +5°C° 0 mm 1 mps 643 mmHg 81%
06:00 +5°C° 0 mm 1 mps 643 mmHg 82%
07:00 +6°C° 0 mm 1 mps 644 mmHg 79%
08:00 +7°C° 0 mm 1 mps 644 mmHg 75%
09:00 +8°C° 0 mm 1 mps 645 mmHg 71%
10:00 +8°C° 0 mm 2 mps 646 mmHg 68%
11:00 +8°C° 0 mm 3 mps 646 mmHg 65%
12:00 +8°C° 0 mm 4 mps 646 mmHg 62%
13:00 +9°C° 0 mm 3 mps 646 mmHg 63%
14:00 +9°C° 0 mm 2 mps 646 mmHg 64%
15:00 +9°C° 0 mm 2 mps 646 mmHg 65%
16:00 +7°C° 0 mm 2 mps 646 mmHg 73%
17:00 +7°C° 0 mm 1 mps 645 mmHg 81%
18:00 +5°C° 0 mm 1 mps 645 mmHg 89%
19:00 +5°C° 0 mm 1 mps 645 mmHg 90%
20:00 +4°C° 0 mm 1 mps 646 mmHg 92%
21:00 +4°C° 0 mm 1 mps 646 mmHg 93%
22:00 +4°C° 0 mm 1 mps 646 mmHg 92%
23:00 +4°C° 0 mm 1 mps 646 mmHg 91%

30 November, Monday

Time Temperature Precipitation Wind Pressure Humidity
00:00 +4°C° 0 mm 1 mps 646 mmHg 90%
01:00 +4°C° 0 mm 1 mps 646 mmHg 88%
02:00 +4°C° 0 mm 1 mps 646 mmHg 87%
03:00 +4°C° 0 mm 1 mps 647 mmHg 85%
04:00 +4°C° 0 mm 1 mps 647 mmHg 85%
05:00 +5°C° 0 mm 1 mps 647 mmHg 85%
06:00 +5°C° 0 mm 1 mps 647 mmHg 84%
07:00 +5°C° 0 mm 1 mps 647 mmHg 81%
08:00 +6°C° 0 mm 1 mps 647 mmHg 78%
09:00 +7°C° 0 mm 1 mps 648 mmHg 75%
10:00 +8°C° 0 mm 1 mps 648 mmHg 73%
11:00 +8°C° 0 mm 1 mps 648 mmHg 70%
12:00 +9°C° 0 mm 1 mps 648 mmHg 68%
13:00 +7°C° 0.6 mm 2 mps 648 mmHg 73%
14:00 +7°C° 0.6 mm 2 mps 647 mmHg 78%
15:00 +6°C° 0.6 mm 2 mps 647 mmHg 83%
16:00 +6°C° 1.7 mm 2 mps 647 mmHg 86%
17:00 +5°C° 1.7 mm 2 mps 647 mmHg 88%
18:00 +5°C° 1.7 mm 2 mps 647 mmHg 91%
19:00 +5°C° 0.6 mm 2 mps 647 mmHg 90%
20:00 +5°C° 0.6 mm 2 mps 647 mmHg 90%
21:00 +5°C° 0.6 mm 2 mps 647 mmHg 89%
22:00 +6°C° 0.1 mm 1 mps 647 mmHg 89%
23:00 +6°C° 0.1 mm 1 mps 647 mmHg 89%
Show more